EW7168 Weather Reports


time (UTC)temp
C
wind
direction
speed
KPH
gust
KPH
rain 1hr
cm
rain 24hr
cm
rain mn
cm
humidity
%
barometer
mb
20220629033104 25 214 1.6 6.4 0.00 0.00 0.00 25 1022.4
20220629031601 26 203 3.2 11.3 0.00 0.00 0.00 25 1022.4
20220629030059 26 240 4.8 12.9 0.00 0.00 0.00 24 1022.3
20220629024602 26 202 3.2 8.0 0.00 0.00 0.00 24 1021.7
20220629023102 27 196 3.2 6.4 0.00 0.00 0.00 24 1021.5
20220629021606 27 227 3.2 12.9 0.00 0.00 0.00 22 1021.4
20220629020112 28 288 3.2 12.9 0.00 0.00 0.00 21 1021.3
20220629014602 28 0 3.2 9.7 0.00 0.00 0.00 21 1021.4
20220629013105 29 264 3.2 6.4 0.00 0.00 0.00 21 1021.4
20220629011605 30 274 1.6 9.7 0.00 0.00 0.00 20 1021.5
20220629010108 30 252 3.2 12.9 0.00 0.00 0.00 19 1021.5
20220629004609 31 269 1.6 9.7 0.00 0.00 0.00 18 1021.5
20220629003109 32 0 0.0 4.8 0.00 0.00 0.00 19 1021.6
20220629001607 32 0 0.0 4.8 0.00 0.00 0.00 15 1021.6
20220629000105 31 0 1.6 8.0 0.00 0.00 0.00 14 1021.6
20220628234602 32 0 3.2 9.7 0.00 0.00 0.00 14 1021.7
20220628233105 33 133 4.8 14.5 0.00 0.00 0.00 14 1021.9
20220628231602 33 227 1.6 6.4 0.00 0.00 0.00 13 1022.0
20220628230108 33 0 0.0 9.7 0.00 0.00 0.00 15 1022.1
20220628224606 33 250 1.6 11.3 0.00 0.00 0.00 13 1022.3
20220628223106 32 198 4.8 17.7 0.00 0.00 0.00 15 1022.5
20220628221610 33 271 3.2 12.9 0.00 0.00 0.00 15 1022.7
20220628220104 33 204 6.4 17.7 0.00 0.00 0.00 15 1022.7
20220628214602 32 352 3.2 9.7 0.00 0.00 0.00 15 1022.9
20220628213108 32 269 3.2 12.9 0.00 0.00 0.00 16 1023.0
20220628211603 32 211 1.6 11.3 0.00 0.00 0.00 15 1023.2
20220628210108 32 115 1.6 16.1 0.00 0.00 0.00 15 1023.1
20220628204609 33 352 3.2 11.3 0.00 0.00 0.00 12 1023.2
20220628203107 33 250 3.2 11.3 0.00 0.00 0.00 13 1023.3
20220628201602 32 61 4.8 14.5 0.00 0.00 0.00 15 1023.5
20220628200106 31 37 6.4 17.7 0.00 0.00 0.00 17 1023.5
20220628194606 31 80 8.0 20.9 0.00 0.00 0.00 14 1023.8
20220628193121 32 84 6.4 16.1 0.00 0.00 0.00 15 1023.8
20220628191605 32 71 9.7 27.4 0.00 0.00 0.00 15 1024.1
20220628190104 31 117 1.6 17.7 0.00 0.00 0.00 15 1024.3
20220628184608 32 153 6.4 12.9 0.00 0.00 0.00 16 1024.5
20220628183107 31 119 6.4 14.5 0.00 0.00 0.00 16 1024.6
20220628181609 31 32 6.4 14.5 0.00 0.00 0.00 15 1024.6
20220628180114 30 88 8.0 16.1 0.00 0.00 0.00 19 1024.7
20220628174604 30 247 3.2 9.7 0.00 0.00 0.00 20 1024.7
20220628173107 30 107 4.8 14.5 0.00 0.00 0.00 20 1024.8
20220628171603 29 134 1.6 12.9 0.00 0.00 0.00 23 1024.9
20220628170109 28 89 3.2 14.5 0.00 0.00 0.00 23 1024.8
20220628164607 29 84 3.2 8.0 0.00 0.00 0.00 26 1025.0
20220628163110 28 85 4.8 11.3 0.00 0.00 0.00 25 1024.9
20220628161610 28 86 1.6 6.4 0.00 0.00 0.00 27 1025.0
20220628160111 27 80 3.2 6.4 0.00 0.00 0.00 29 1024.9
20220628154614 27 67 1.6 6.4 0.00 0.00 0.00 32 1025.1
20220628153107 26 140 1.6 9.7 0.00 0.00 0.00 32 1025.1
20220628151611 25 134 0.0 6.4 0.00 0.00 0.00 35 1025.2
20220628150113 23 169 1.6 6.4 0.00 0.00 0.00 34 1025.3
20220628144607 23 219 1.6 6.4 0.00 0.00 0.00 38 1025.3
20220628143109 23 196 0.0 4.8 0.00 0.00 0.00 37 1025.5
20220628141610 22 205 1.6 6.4 0.00 0.00 0.00 37 1025.6
20220628140112 21 173 0.0 4.8 0.00 0.00 0.00 42 1025.9
20220628134608 20 196 1.6 4.8 0.00 0.00 0.00 44 1025.8
20220628133108 19 188 0.0 3.2 0.00 0.00 0.00 44 1025.8
20220628131608 17 0 1.6 4.8 0.00 0.00 0.00 46 1025.7
20220628130112 16 0 0.0 4.8 0.00 0.00 0.00 51 1025.7
20220628124610 15 0 0.0 4.8 0.00 0.00 0.00 55 1025.7
20220628123107 15 0 1.6 4.8 0.00 0.00 0.00 55 1025.7
20220628121600 13 0 0.0 3.2 0.00 0.00 0.00 59 1025.7
20220628120109 13 0 0.0 3.2 0.00 0.00 0.00 60 1025.8
20220628114606 13 0 0.0 3.2 0.00 0.00 0.00 64 1025.8
20220628113135 13 0 0.0 0.0 0.00 0.00 0.00 63 1025.7
20220628111604 13 0 0.0 3.2 0.00 0.00 0.00 61 1025.7
20220628110106 13 0 0.0 1.6 0.00 0.00 0.00 58 1025.6
20220628104604 13 0 0.0 4.8 0.00 0.00 0.00 58 1025.5
20220628103106 14 0 0.0 8.0 0.00 0.00 0.00 57 1025.5
20220628101607 14 231 1.6 6.4 0.00 0.00 0.00 55 1025.5
20220628100104 13 0 0.0 0.0 0.00 0.00 0.00 58 1025.5
20220628094604 13 0 0.0 0.0 0.00 0.00 0.00 59 1025.8
20220628093104 13 227 0.0 3.2 0.00 0.00 0.00 60 1025.9
20220628091606 13 0 0.0 0.0 0.00 0.00 0.00 62 1026.1
20220628090110 13 0 0.0 0.0 0.00 0.00 0.00 62 1026.3
20220628084605 13 0 0.0 0.0 0.00 0.00 0.00 64 1026.5
20220628083109 13 0 0.0 0.0 0.00 0.00 0.00 63 1026.6
20220628081608 14 0 0.0 0.0 0.00 0.00 0.00 61 1026.6
20220628080104 14 0 0.0 0.0 0.00 0.00 0.00 61 1026.7
20220628074611 15 0 0.0 0.0 0.00 0.00 0.00 60 1026.7
20220628073123 15 0 0.0 0.0 0.00 0.00 0.00 60 1027.0
20220628071608 15 0 0.0 3.2 0.00 0.00 0.00 60 1027.2
20220628070108 15 0 0.0 3.2 0.00 0.00 0.00 59 1027.3
20220628064607 15 217 1.6 4.8 0.00 0.00 0.00 59 1027.6
20220628063104 16 0 0.0 0.0 0.00 0.00 0.00 61 1027.7
20220628061607 16 0 0.0 1.6 0.00 0.00 0.00 60 1027.8
20220628060111 16 0 0.0 0.0 0.00 0.00 0.00 57 1028.2
20220628054610 17 0 0.0 1.6 0.00 0.00 0.00 56 1028.3
20220628053106 17 0 0.0 1.6 0.00 0.00 0.00 54 1028.5
20220628051606 18 205 0.0 1.6 0.00 0.00 0.00 52 1028.2
20220628050109 18 0 0.0 3.2 0.00 0.00 0.00 51 1028.1
20220628044609 18 344 1.6 6.4 0.00 0.00 0.00 49 1028.3
20220628043108 20 34 0.0 4.8 0.00 0.00 0.00 46 1028.1
20220628041603 20 9 1.6 12.9 0.00 0.00 0.00 44 1028.2
20220628040111 21 94 6.4 19.3 0.00 0.00 0.00 41 1027.7
20220628034607 21 250 0.0 4.8 0.00 0.00 0.00 38 1027.1
20220628033106 21 0 0.0 3.2 0.00 0.00 0.00 37 1026.7